[[{"header":{"parameterUnit":"m.s-1","parameterCategory":2,"la1":30.2992,"la2":30.254,"lo1":-89.0895,"lo2":-89.0443,"dy":0.0025,"dx":0.0025,"nx":19,"ny":19,"refTime":"2026-04-23T09:00:00:Z","depth":"0","parameterNumber":2,"parameterNumberName":"U-component_of_CURRENTS"},"data":[0,0,0,0.1274,0.1276,0.1347,0.1348,0.1468,0.1469,0,0,0,0,0,0,0,0,0,0,0,0.1245,0.1245,0.1274,0.1276,0.1347,0.1348,0.1468,0.1469,0,0,0,0,0,0,0,0,0,0,0,0.1245,0.1245,0.1246,0.1276,0.1347,0.1348,0.1468,0.1407,0,0,0,0,0,0,0,0,0,0,0.1334,0.1297,0.1245,0.1246,0.1277,0.1347,0.1348,0.1404,0.1411,0.1443,0,0.1451,0,0.1466,0.1478,0.1478,0,0,0,0.1278,0.1291,0.1316,0.1246,0.1277,0.1347,0.1316,0.1407,0.1415,0.1453,0.1453,0.1457,0.1468,0.1479,0.1479,0.1567,0.1567,0,0,0.1274,0.1256,0.1311,0.1321,0.1293,0.1313,0.1318,0.1412,0.1416,0.1453,0.146,0.147,0.1479,0.148,0.1567,0.1567,0,0,0,0.1261,0.1253,0.1275,0.1316,0.1329,0.1315,0.1321,0.1412,0.1421,0.1462,0.1471,0.148,0.1482,0.1567,0.1567,0.1519,0,0,0,0.1259,0.1246,0.1273,0.1263,0.1327,0.1367,0.1318,0.1414,0.1425,0.1471,0.148,0.1483,0.1567,0.1567,0.152,0.1501,0,0,0,0.1242,0.1244,0.1252,0.1262,0.1293,0.1365,0.1379,0.1416,0.1432,0.1478,0.1483,0.1567,0.1567,0.1521,0.1504,0.1515,0,0,0,0.1222,0.1238,0.1252,0.1272,0.1292,0.133,0.1379,0.1414,0.1448,0.1481,0.1567,0.1567,0.1522,0.1505,0.1515,0.1537,0.1534,0,0,0.1233,0.1239,0.1251,0.1266,0.129,0.132,0.1348,0.1414,0.1462,0.1539,0.1541,0.152,0.1504,0.1515,0.1537,0.1534,0,0,0,0.1249,0.1254,0.1265,0.1282,0.131,0.1329,0.1382,0.1414,0.1477,0.1483,0.1533,0.1525,0.1533,0.1549,0.1547,0.1419,0.1567,0.1567,0.1567,0.1225,0.1245,0.126,0.1283,0.13,0.1338,0.1366,0.1421,0.1461,0.148,0.1496,0.1484,0.1499,0.1498,0.1365,0.1506,0.1506,0.1506,0.1506,0.1231,0.1246,0.1251,0.1272,0.1285,0.1305,0.1364,0.1392,0.1448,0.1472,0.1482,0.1509,0.1493,0.1353,0.1503,0.1503,0.1504,0.1504,0.1504,0.1219,0.1233,0.1234,0.1249,0.1255,0.1283,0.1315,0.1353,0.1413,0.142,0.1465,0.1466,0.1336,0.1428,0.1428,0.1428,0.1428,0.1428,0.1428,0.1215,0.1221,0.1227,0.123,0.1232,0.1243,0.1285,0.1326,0.1385,0.1423,0.1424,0.1316,0.1461,0.1457,0.1427,0.1428,0.1428,0.1428,0.1428,0.1256,0.123,0.1242,0.1239,0.1235,0.1228,0.1261,0.1328,0.1374,0.1411,0.1287,0.1441,0.1466,0.1468,0.1466,0.144,0.144,0.144,0.144,0.1274,0.1266,0.127,0.1261,0.1249,0.1231,0.1244,0.128,0.1279,0.1244,0.1216,0.1204,0.1209,0.1218,0.1226,0.1218,0.1129,0.1129,0.1128,0.1319,0.1305,0.1314,0.1278,0.1255,0.1236,0.1204,0.1183,0.1166,0.1099,0.1026,0.1039,0.1005,0.1024,0.1029,0.105,0.1037,0,0]},{"header":{"parameterUnit":"m.s-1","parameterCategory":2,"la1":30.2992,"la2":30.254,"lo1":-89.0895,"lo2":-89.0443,"dy":0.0025,"dx":0.0025,"nx":19,"ny":19,"refTime":"2026-04-23T09:00:00:Z","depth":"0","parameterNumber":3,"parameterNumberName":"V-component_of_CURRENTS"},"data":[0,0,0,-0.0052,-0.0051,0.0032,0.0032,0.0196,0.0198,0,0,0,0,0,0,0,0,0,0,0,-0.008,-0.0079,-0.0052,-0.005,0.0032,0.0032,0.0196,0.0198,0,0,0,0,0,0,0,0,0,0,0,-0.008,-0.0079,-0.0079,-0.005,0.0032,0.0033,0.0196,0.0122,0,0,0,0,0,0,0,0,0,0,0.0036,-0.0007,-0.008,-0.0079,-0.005,0.0032,0.0033,0.0118,0.0127,0.0172,0,0.0176,0,0.0187,0.0209,0.021,0,0,0,-0.0037,-0.0014,0.001,-0.0079,-0.0049,0.0032,-0.0002,0.0123,0.0132,0.0183,0.0178,0.0184,0.019,0.021,0.0211,0.0362,0.0363,0,0,-0.0042,-0.0061,0.0003,0.0016,-0.0036,-0.0004,0.0001,0.0128,0.0135,0.0179,0.0188,0.0192,0.0211,0.0212,0.0362,0.0363,0,0,0,-0.0064,-0.0064,-0.0044,0.0009,0.0018,-0.0002,0.0004,0.0129,0.0136,0.019,0.0194,0.0212,0.0214,0.0362,0.0362,0.0364,0,0,0,-0.0066,-0.0078,-0.0046,-0.0056,0.0014,0.0065,0.0002,0.0127,0.0142,0.0194,0.0212,0.0216,0.0361,0.0362,0.0363,0.0366,0,0,0,-0.0082,-0.0079,-0.0073,-0.0057,-0.0028,0.0063,0.0078,0.0131,0.0145,0.021,0.0216,0.0361,0.0362,0.0362,0.0365,0.038,0,0,0,-0.0099,-0.0077,-0.0073,-0.0042,-0.0029,0.0045,0.0077,0.0138,0.0191,0.0213,0.0361,0.0362,0.0362,0.0364,0.0379,0.0374,0.0378,0,0,-0.0077,-0.0075,-0.0054,-0.0048,0.0016,0.0035,0.012,0.0194,0.0224,0.0325,0.0328,0.0364,0.0365,0.0379,0.0432,0.0434,0,0,0,-0.005,-0.0035,-0.0014,0.0021,0.0067,0.0127,0.0188,0.0222,0.0302,0.0257,0.0383,0.0385,0.0393,0.0389,0.0392,0.0523,0.0367,0.0367,0.0367,-0.0033,-0.0007,0.004,0.0084,0.0128,0.0202,0.0254,0.0316,0.0337,0.0366,0.0401,0.0434,0.0431,0.0432,0.0568,0.0416,0.0417,0.0417,0.0417,0.0013,0.0047,0.008,0.0131,0.0187,0.0254,0.0342,0.036,0.0434,0.0431,0.0439,0.041,0.0434,0.0578,0.0417,0.0417,0.0417,0.0417,0.0417,0.0036,0.0057,0.0081,0.0147,0.0216,0.0282,0.0354,0.0403,0.0438,0.0458,0.0452,0.0452,0.0566,0.0456,0.0456,0.0456,0.0456,0.0456,0.0456,0.0049,0.0076,0.0108,0.0167,0.0207,0.027,0.0357,0.0397,0.0443,0.0463,0.0463,0.0605,0.0446,0.0429,0.0458,0.0457,0.0457,0.0457,0.0457,0.0088,0.0081,0.0126,0.0158,0.024,0.0289,0.0351,0.0413,0.0448,0.0467,0.0641,0.0471,0.0471,0.047,0.0455,0.0488,0.0488,0.0488,0.0488,0.01,0.0104,0.0148,0.0195,0.0255,0.0306,0.0364,0.0444,0.0595,0.0699,0.073,0.074,0.0733,0.075,0.0742,0.0733,0.0836,0.0837,0.0838,0.0121,0.0126,0.0159,0.0196,0.0267,0.0314,0.037,0.0504,0.0754,0.0867,0.092,0.0905,0.0935,0.0913,0.0946,0.0925,0.0912,0,0]}],[{"header":{"parameterUnit":"m.s-1","parameterCategory":2,"la1":30.2992,"la2":30.254,"lo1":-89.0895,"lo2":-89.0443,"dy":0.0025,"dx":0.0025,"nx":19,"ny":19,"refTime":"2026-04-23T09:00:00:Z","depth":"2","parameterNumber":2,"parameterNumberName":"U-component_of_CURRENTS"},"data":[0,0,0,0.0911,0.0912,0.0957,0.0957,0.1021,0.1022,0,0,0,0,0,0,0,0,0,0,0,0.0928,0.0928,0.0911,0.0912,0.0957,0.0957,0.1021,0.1022,0,0,0,0,0,0,0,0,0,0,0,0.0927,0.0928,0.0929,0.0912,0.0957,0.0957,0.1021,0.0988,0,0,0,0,0,0,0,0,0,0,0.0944,0.0955,0.0928,0.0929,0.0912,0.0957,0.0957,0.0986,0.099,0.1,0,0.1028,0,0.1009,0.1025,0.1026,0,0,0,0.0921,0.0952,0.0958,0.093,0.0912,0.0957,0.0939,0.0988,0.0992,0.1005,0.1029,0.103,0.101,0.1026,0.1026,0.1173,0.1174,0,0,0.0918,0.0937,0.0955,0.0961,0.0952,0.0938,0.094,0.0991,0.1011,0.1029,0.1031,0.1011,0.1026,0.1027,0.1171,0.1173,0,0,0,0.0905,0.0936,0.094,0.096,0.0958,0.0939,0.0942,0.101,0.101,0.1031,0.1012,0.1026,0.1027,0.117,0.1172,0.1198,0,0,0,0.0904,0.0926,0.094,0.0951,0.0957,0.0981,0.096,0.1008,0.1011,0.1012,0.1026,0.1028,0.1169,0.1171,0.1194,0.1157,0,0,0,0.092,0.0927,0.094,0.0952,0.0962,0.098,0.0984,0.1008,0.0999,0.1026,0.1028,0.1168,0.1171,0.1191,0.1154,0.1154,0,0,0,0.0925,0.096,0.0942,0.0976,0.0962,0.0986,0.0984,0.1022,0.1052,0.1027,0.1169,0.1172,0.119,0.1152,0.1153,0.1102,0.1105,0,0,0.0962,0.0965,0.0981,0.0964,0.0983,0.0979,0.1032,0.1077,0.1101,0.1151,0.1154,0.1195,0.1154,0.1154,0.1267,0.1265,0,0,0,0.0986,0.1003,0.1005,0.1018,0.1022,0.1049,0.1082,0.1113,0.1198,0.1129,0.1247,0.122,0.1218,0.1187,0.1187,0.1185,0.1185,0.1185,0.1184,0.1064,0.1048,0.107,0.1064,0.1085,0.1117,0.1154,0.1215,0.1234,0.1301,0.1281,0.1348,0.1321,0.1318,0.1353,0.1353,0.1353,0.1353,0.1354,0.1107,0.1115,0.1112,0.1127,0.1147,0.1197,0.1243,0.1278,0.1335,0.1354,0.1353,0.1266,0.1318,0.1357,0.1356,0.1356,0.1355,0.1355,0.1355,0.1144,0.1143,0.1152,0.1169,0.1206,0.1235,0.1265,0.13,0.1345,0.1356,0.132,0.1319,0.1301,0.1372,0.1372,0.1371,0.1371,0.1371,0.1371,0.1176,0.1176,0.1194,0.1202,0.1216,0.1235,0.1265,0.1275,0.1291,0.1319,0.1319,0.1352,0.1352,0.1303,0.137,0.137,0.137,0.137,0.137,0.1214,0.1211,0.1221,0.1232,0.123,0.1203,0.1226,0.122,0.124,0.1232,0.1299,0.1301,0.127,0.1271,0.1222,0.1263,0.1263,0.1263,0.1263,0.1242,0.1241,0.1247,0.1242,0.1219,0.1191,0.1141,0.1063,0.1082,0.1049,0.1058,0.105,0.106,0.1016,0.1023,0.0968,0.0942,0.0941,0.0941,0.1272,0.1265,0.1272,0.1253,0.1212,0.1166,0.1064,0.0764,0.0625,0.0922,0.0945,0.1252,0.1267,0.1273,0.1226,0.1229,0.1149,0,0]},{"header":{"parameterUnit":"m.s-1","parameterCategory":2,"la1":30.2992,"la2":30.254,"lo1":-89.0895,"lo2":-89.0443,"dy":0.0025,"dx":0.0025,"nx":19,"ny":19,"refTime":"2026-04-23T09:00:00:Z","depth":"2","parameterNumber":3,"parameterNumberName":"V-component_of_CURRENTS"},"data":[0,0,0,-0.0884,-0.0883,-0.0818,-0.0817,-0.0696,-0.0695,0,0,0,0,0,0,0,0,0,0,0,-0.0878,-0.0878,-0.0884,-0.0883,-0.0818,-0.0817,-0.0696,-0.0695,0,0,0,0,0,0,0,0,0,0,0,-0.0879,-0.0878,-0.0877,-0.0883,-0.0818,-0.0817,-0.0697,-0.0749,0,0,0,0,0,0,0,0,0,0,-0.0814,-0.0804,-0.0878,-0.0877,-0.0883,-0.0818,-0.0817,-0.0752,-0.0746,-0.0723,0,-0.0708,0,-0.0722,-0.0689,-0.0688,0,0,0,-0.0857,-0.0809,-0.0821,-0.0877,-0.0883,-0.0818,-0.084,-0.0748,-0.0742,-0.0715,-0.0707,-0.0703,-0.072,-0.0688,-0.0688,-0.0495,-0.0494,0,0,-0.0861,-0.0837,-0.0826,-0.0817,-0.0859,-0.0842,-0.0838,-0.0744,-0.0716,-0.0707,-0.0701,-0.0718,-0.0687,-0.0687,-0.0496,-0.0495,0,0,0,-0.0889,-0.0839,-0.0853,-0.0821,-0.0824,-0.0841,-0.0836,-0.0719,-0.0732,-0.07,-0.0716,-0.0687,-0.0686,-0.0498,-0.0496,-0.0378,0,0,0,-0.089,-0.0859,-0.0854,-0.0836,-0.0826,-0.0773,-0.0813,-0.0737,-0.0729,-0.0717,-0.0687,-0.0685,-0.05,-0.0497,-0.0385,-0.0385,0,0,0,-0.0883,-0.0858,-0.0855,-0.0835,-0.0826,-0.0776,-0.078,-0.0735,-0.074,-0.0688,-0.0684,-0.0501,-0.0497,-0.039,-0.0393,-0.0383,0,0,0,-0.0855,-0.0835,-0.0853,-0.0823,-0.0827,-0.0784,-0.0781,-0.0715,-0.0665,-0.0686,-0.0499,-0.0496,-0.0392,-0.0398,-0.0387,-0.0358,-0.0337,0,0,-0.0825,-0.083,-0.0816,-0.0833,-0.0803,-0.0792,-0.0688,-0.0618,-0.0605,-0.0527,-0.0523,-0.0382,-0.0393,-0.0384,-0.0169,-0.0154,0,0,0,-0.0805,-0.0788,-0.0784,-0.0761,-0.0749,-0.0656,-0.061,-0.0558,-0.0428,-0.0568,-0.0349,-0.036,-0.0358,-0.0347,-0.0333,-0.0481,-0.0481,-0.0481,-0.0482,-0.0684,-0.0711,-0.0673,-0.0676,-0.0627,-0.0542,-0.0457,-0.0363,-0.0363,-0.0263,-0.0236,-0.0118,-0.0097,-0.0089,-0.0179,-0.0178,-0.0178,-0.0177,-0.0177,-0.0622,-0.0596,-0.0581,-0.0544,-0.0464,-0.0347,-0.0248,-0.0202,-0.0096,-0.0098,-0.01,-0.0188,-0.0068,-0.0167,-0.0169,-0.017,-0.0171,-0.0172,-0.0173,-0.0536,-0.0534,-0.0493,-0.0423,-0.0291,-0.0208,-0.0111,-0.0046,-0.0005,0.0027,0.0001,-0.0002,-0.0113,0.0039,0.0039,0.0039,0.0039,0.0039,0.0039,-0.046,-0.0442,-0.038,-0.0309,-0.0232,-0.0135,-0.0032,-0.0016,0.0044,0.0096,0.0096,-0.0047,-0.0054,-0.0101,0.0041,0.0041,0.004,0.004,0.004,-0.0404,-0.037,-0.0317,-0.0251,-0.0155,-0.0114,-0.0053,0.0013,0.005,0.0066,0.0121,0.0119,0.0057,0.0047,0.0002,0.0162,0.0162,0.0162,0.0162,-0.0354,-0.0342,-0.0271,-0.0212,-0.0164,-0.0117,-0.005,0.011,0.0214,0.0377,0.0368,0.0375,0.0364,0.0318,0.0301,0.026,0.0488,0.0489,0.049,-0.033,-0.0317,-0.0267,-0.0212,-0.0167,-0.0141,-0.004,0.0274,0.0606,0.0508,0.0476,0.0174,0.0158,0.0152,0.0053,0.0037,-0.0041,0,0]}],[{"header":{"parameterUnit":"m.s-1","parameterCategory":2,"la1":30.2992,"la2":30.254,"lo1":-89.0895,"lo2":-89.0443,"dy":0.0025,"dx":0.0025,"nx":19,"ny":19,"refTime":"2026-04-23T09:00:00:Z","depth":"4","parameterNumber":2,"parameterNumberName":"U-component_of_CURRENTS"},"data":[0,0,0,-0.0426,-0.0427,-0.0429,-0.0428,-0.0386,-0.0386,0,0,0,0,0,0,0,0,0,0,0,-0.0428,-0.0428,-0.0426,-0.0427,-0.0429,-0.0428,-0.0386,-0.0386,0,0,0,0,0,0,0,0,0,0,0,-0.0428,-0.0428,-0.0429,-0.0427,-0.0429,-0.0428,-0.0386,-0.0394,0,0,0,0,0,0,0,0,0,0,-0.0397,-0.041,-0.0428,-0.0429,-0.0427,-0.0429,-0.0428,-0.0395,-0.0393,-0.0376,0,-0.0386,0,-0.0387,-0.0383,-0.0383,0,0,0,-0.0417,-0.0411,-0.0411,-0.0429,-0.0427,-0.0429,-0.0425,-0.0394,-0.0393,-0.0374,-0.0386,-0.0385,-0.0387,-0.0383,-0.0382,-0.0307,-0.0307,0,0,-0.0417,-0.0425,-0.0413,-0.0411,-0.044,-0.0425,-0.0425,-0.0394,-0.0397,-0.0386,-0.0384,-0.0386,-0.0382,-0.0382,-0.0308,-0.0307,0,0,0,-0.0423,-0.0425,-0.0426,-0.0412,-0.0418,-0.0425,-0.0426,-0.0398,-0.0399,-0.0383,-0.0385,-0.0382,-0.0381,-0.0308,-0.0308,-0.0236,0,0,0,-0.0423,-0.0429,-0.0426,-0.043,-0.0419,-0.0415,-0.0431,-0.0401,-0.0398,-0.0386,-0.0382,-0.0381,-0.0309,-0.0308,-0.0239,-0.0246,0,0,0,-0.0426,-0.0429,-0.0433,-0.0431,-0.0435,-0.0415,-0.0414,-0.0401,-0.0399,-0.0383,-0.0381,-0.0309,-0.0308,-0.0242,-0.025,-0.0274,0,0,0,-0.0426,-0.0435,-0.0434,-0.044,-0.0436,-0.0422,-0.0415,-0.0399,-0.0385,-0.0382,-0.0309,-0.0308,-0.0243,-0.0252,-0.0275,-0.0331,0,0,0,-0.0434,-0.0436,-0.0437,-0.0436,-0.0426,-0.042,-0.0397,-0.0376,-0.0358,-0.0316,-0.0315,-0.0238,-0.025,-0.0274,-0.0262,0,0,0,0,-0.0437,-0.0439,-0.0434,-0.0432,-0.0421,-0.0392,-0.0383,-0.0357,-0.0288,-0.0346,-0.0235,-0.0245,-0.0263,-0.0298,-0.0302,-0.0302,-0.0302,-0.0303,-0.0303,-0.0439,-0.0435,-0.0429,-0.042,-0.0405,-0.0371,-0.0346,-0.0306,-0.0274,-0.0222,-0.0182,-0.015,-0.018,-0.0158,-0.0158,-0.0158,-0.0157,-0.0157,-0.0157,-0.0427,-0.042,-0.0413,-0.0399,-0.037,-0.0328,-0.0274,-0.0238,-0.0176,-0.0136,-0.0155,-0.0213,-0.015,-0.0151,-0.0152,-0.0153,-0.0154,-0.0154,-0.0154,-0.0409,-0.0408,-0.0401,-0.038,-0.0314,-0.0257,-0.0213,-0.0144,-0.0123,-0.0112,-0.0158,-0.0133,-0.0149,-0.0088,-0.0088,-0.0088,-0.0088,-0.0088,-0.0088,-0.0388,-0.0391,-0.0379,-0.0341,-0.03,-0.0222,-0.0139,-0.0176,-0.0147,-0.0119,-0.0076,-0.0129,-0.0131,-0.0147,-0.009,-0.009,-0.0089,-0.0089,-0.0089,-0.0371,-0.0375,-0.0359,-0.034,-0.0275,-0.0226,-0.0168,-0.0209,-0.0242,-0.0293,-0.0156,-0.0152,-0.0205,-0.0207,-0.0227,-0.0192,-0.0192,-0.0193,0,-0.0359,-0.0361,-0.0347,-0.0327,-0.0301,-0.0237,-0.0266,-0.0308,-0.0302,-0.0227,-0.0302,-0.0143,-0.014,-0.02,-0.0202,-0.0226,0,0,0,-0.0349,-0.0348,-0.0335,-0.033,-0.0296,-0.0293,-0.027,-0.0266,-0.0234,-0.0373,-0.0207,-0.0204,-0.0308,-0.0094,-0.0169,-0.0172,-0.0202,0,0]},{"header":{"parameterUnit":"m.s-1","parameterCategory":2,"la1":30.2992,"la2":30.254,"lo1":-89.0895,"lo2":-89.0443,"dy":0.0025,"dx":0.0025,"nx":19,"ny":19,"refTime":"2026-04-23T09:00:00:Z","depth":"4","parameterNumber":3,"parameterNumberName":"V-component_of_CURRENTS"},"data":[0,0,0,0.0423,0.0424,0.0485,0.0485,0.0594,0.0595,0,0,0,0,0,0,0,0,0,0,0,0.0404,0.0405,0.0423,0.0424,0.0484,0.0485,0.0593,0.0595,0,0,0,0,0,0,0,0,0,0,0,0.0404,0.0405,0.0405,0.0424,0.0484,0.0485,0.0593,0.0541,0,0,0,0,0,0,0,0,0,0,0.0479,0.0452,0.0405,0.0405,0.0425,0.0484,0.0485,0.0538,0.0544,0.0573,0,0.0582,0,0.0589,0.0602,0.0602,0,0,0,0.043,0.0447,0.0466,0.0405,0.0425,0.0484,0.0459,0.0541,0.0548,0.0582,0.0583,0.0587,0.059,0.0603,0.0603,0.0747,0.0747,0,0,0.0426,0.0416,0.0461,0.047,0.0441,0.0457,0.0461,0.0545,0.0552,0.0584,0.059,0.0592,0.0604,0.0604,0.0746,0.0747,0,0,0,0.0413,0.0413,0.0429,0.0466,0.0473,0.0458,0.0463,0.0548,0.0554,0.0591,0.0593,0.0604,0.0606,0.0745,0.0746,0.0766,0,0,0,0.0411,0.0405,0.0428,0.0422,0.0471,0.0506,0.0464,0.0548,0.0558,0.0593,0.0604,0.0607,0.0744,0.0746,0.0763,0.0745,0,0,0,0.0402,0.0404,0.0411,0.0421,0.0445,0.0505,0.0516,0.055,0.056,0.0603,0.0607,0.0744,0.0745,0.0761,0.0743,0.0786,0,0,0,0.0389,0.0396,0.0411,0.0423,0.0444,0.0483,0.0515,0.0564,0.0602,0.0605,0.0744,0.0746,0.0761,0.0742,0.0784,0.0597,0,0,0,0.0389,0.0396,0.0403,0.0418,0.0438,0.0475,0.0534,0.0604,0.0641,0.0718,0.0721,0.0764,0.0743,0.0786,0.0702,0,0,0,0,0.0397,0.04,0.041,0.0427,0.0459,0.0516,0.0579,0.0632,0.0731,0.067,0.0794,0.078,0.0807,0.0694,0.0755,0.0754,0.0754,0.0754,0.0754,0.0383,0.0397,0.0409,0.0439,0.0484,0.056,0.0622,0.0712,0.0748,0.0813,0.082,0.0893,0.0778,0.0861,0.0861,0.0861,0.0861,0.0861,0.0861,0.0371,0.0377,0.0419,0.0461,0.053,0.0619,0.0713,0.0762,0.0864,0.0875,0.0901,0.0751,0.0864,0.0864,0.0863,0.0863,0.0863,0.0863,0.0862,0.0356,0.0361,0.0407,0.0483,0.0596,0.07,0.0771,0.0821,0.0889,0.0906,0.0819,0.0912,0.0884,0.0945,0.0945,0.0946,0.0946,0.0946,0.0946,0.0329,0.0354,0.0419,0.0522,0.0629,0.0736,0.0818,0.0817,0.085,0.0811,0.0925,0.0921,0.0918,0.089,0.0948,0.0948,0.0947,0.0947,0.0947,0.0289,0.0327,0.0414,0.0509,0.0692,0.0709,0.0818,0.0735,0.0748,0.0687,0.0768,0.0776,0.075,0.0752,0.0716,0.0724,0.0722,0.072,0,0.0267,0.0283,0.0419,0.0542,0.0621,0.0683,0.0624,0.0608,0.0596,0.0599,0.0723,0.0818,0.0822,0.0793,0.0791,0.075,0,0,0,0.0234,0.0287,0.0389,0.0517,0.0594,0.0532,0.0583,0.0529,0.067,0.0512,0.0664,0.0679,0.0752,0.0954,0.0934,0.0931,0.0884,0,0]}]]